星链-1976 (STARLINK-1976 )

导读 | 星芒AI

STARLINK-1976 是 SpaceX Starlink 卫星互联网项目中的一颗低轨道卫星,属于第 52 批次发射的 Starlink 群组。该卫星旨在为全球用户提供高速、低延迟的宽带互联网服务,特别服务于传统网络难以覆盖的偏远地区。它运行在约 550 公里的高度,采用先进推进系统和激光通信技术,以提高网络效率和稳定性。作为 Starlink 计划的一部分,STARLINK-1976 有助于构建更完善的全球卫星通信网络。

基本信息
目录编号:
47574
目录名称:
STARLINK-1976
国际标识:
2021-009AC
轨道中心:
EARTH
卫星名称:
星链-1976
卫星全名:
星链-1976 (STARLINK-1976 )
卫星状态:
已陨落 最后检测时间 2025-04-29
发射日期:
2021-02-04 UTC
国别 :
美国 (US)
星等 :
--
轨道信息
数据来源 国际轨道数据
星历时间: 2025-04-29T06:44:42+0800
轨道信息已过期183天
半长轴: 6565.324km
偏心率: 0.0009781
轨道倾角: 53.025°
近地点辐角 282.077°
升交点赤经 316.878°
平近点角 231.243°
近地点: 180.767km
远地点: 193.611km
周期: 88.236分钟
每日圈数: 16.31994
详细信息
固有亮度:
5
最大亮度:
2.5
卫星平台:
Starlink V1.0
覆盖范围:
全球
运营商:
太空探索技术公司
运营商所在国:
美国
制造商(研发单位):
太空探索技术公司
制造商所在国:
美国
使用方式:
暂无
卫星简介
星链(Starlink)计划是由太空探索技术公司(SpaceX)提出的一个巨型低轨卫星互联网星座项目,计划在2019年至2024年间在太空搭建由约1.2万颗卫星组成的“星链”网络,其中1584颗将部署在地球上空550千米处的近地轨道,并从2020年开始工作。该卫星仍在工作。